User: anonymous   Login
Location: Unspecified
(0.0000°N, 0.0000°E)
Time: 18:59:31
(UTC+00:00)
Language:

AO-91 - Orbit

View from above orbital plane
View from above orbital plane
View from above satellite
View from above satellite

Ground track
Ground track

The orbit data is extracted from the following two-line orbital elements,

1 43017U 17073E   19048.79147407  .00000272  00000-0  26983-4 0  9997
2 43017  97.7216 334.9031 0258388 191.7622 167.7482 14.78392067 67391
Epoch (UTC): 17 February 2019 18:59:43
Eccentricity: 0.0258388
inclination: 97.7216°
perigee height: 453 km
apogee height: 815 km
right ascension of ascending node: 334.9031°
argument of perigee: 191.7622°
revolutions per day: 14.78392067
mean anomaly at epoch: 167.7482°
orbit number at epoch: 6739

The dashed part of the orbit path shows where the satellite is in the earth's shadow,  

DLR